Temp
-15 -15 -16 -15 -15 -14 -13 -14 -14 -14 -14 -14 -14 -14 -14 -13 -13 -13 -13 -13 -13 -13 -15 -14 -14 -14 -12
-16 -16 -15 -16 -16 -15 -15 -14 -14 -14 -14 -14 -14 -14 -14 -14 -13 -13 -13 -13 -13 -13 -14 -14 -14 -14 -13
-15 -16 -16 -16 -16 -16 -16 -16 -15 -14 -14 -14 -14 -14 -14 -14 -14 -14 -13 -13 -13 -14 -14 -14 -14 -14 -13
-16 -17 -17 -17 -17 -17 -16 -16 -16 -15 -15 -14 -15 -15 -15 -14 -14 -14 -14 -13 -14 -14 -13 -13 -14 -14 -14
-20 -19 -20 -20 -19 -18 -17 -17 -17 -16 -15 -15 -14 -14 -15 -15 -15 -14 -14 -14 -13 -14 -14 -13 -14 -15 -14
-22 -21 -21 -21 -21 -21 -20 -19 -19 -17 -17 -16 -15 -15 -15 -15 -15 -15 -14 -14 -13 -14 -14 -13 -14 -15 -15
-22 -22 -22 -22 -21 -21 -21 -20 -20 -19 -19 -18 -16 -15 -15 -15 -15 -15 -15 -14 -14 -14 -14 -14 -14 -14 -15
-24 -24 -23 -23 -23 -22 -21 -21 -20 -20 -20 -20 -19 -17 -15 -15 -15 -15 -15 -15 -14 -14 -14 -14 -14 -14 -14
-28 -28 -27 -27 -27 -26 -24 -22 -21 -21 -20 -20 -21 -19 -18 -16 -15 -15 -15 -15 -15 -14 -14 -14 -14 -14 -15
-29 -29 -29 -29 -29 -29 -28 -27 -25 -24 -22 -20 -20 -21 -19 -18 -16 -15 -15 -15 -15 -14 -15 -15 -15 -14 -15
-28 -28 -29 -29 -29 -30 -30 -29 -28 -27 -27 -22 -21 -21 -20 -19 -17 -16 -15 -15 -15 -15 -15 -15 -15 -14 -14
-28 -28 -29 -29 -29 -30 -30 -30 -30 -29 -30 -26 -24 -21 -21 -20 -19 -18 -17 -16 -15 -15 -15 -15 -15 -14 -14
-29 -29 -29 -30 -30 -30 -30 -30 -30 -31 -31 -29 -27 -25 -23 -21 -20 -19 -19 -17 -16 -15 -15 -15 -15 -14 -14
-29 -30 -30 -30 -30 -30 -30 -30 -30 -31 -31 -31 -30 -27 -25 -23 -21 -21 -19 -18 -16 -16 -15 -15 -15 -15 -15
-30 -30 -31 -31 -31 -31 -31 -31 -31 -31 -32 -32 -31 -30 -27 -25 -22 -21 -21 -19 -18 -16 -16 -16 -16 -15 -15
-30 -31 -31 -31 -32 -32 -31 -31 -31 -31 -32 -32 -32 -31 -29 -26 -24 -22 -22 -20 -20 -17 -16 -16 -16 -15 -15
-31 -31 -31 -32 -32 -32 -32 -32 -32 -32 -32 -32 -32 -32 -31 -29 -26 -23 -22 -22 -20 -19 -17 -16 -16 -15 -15
Height
5641 5642 5642 5648 5654 5658 5663 5668 5673 5680 5685 5690 5695 5700 5705 5710 5713 5719 5721 5722 5724 5725 5724 5727 5731 5737 5742
5615 5619 5623 5622 5630 5638 5643 5649 5654 5660 5668 5674 5680 5687 5693 5698 5703 5708 5712 5715 5719 5721 5720 5722 5725 5730 5735
5589 5590 5596 5601 5603 5610 5619 5627 5634 5640 5648 5657 5663 5669 5677 5684 5690 5696 5702 5707 5711 5711 5714 5715 5719 5722 5730
5561 5564 5567 5571 5579 5582 5589 5600 5609 5617 5627 5637 5645 5652 5660 5668 5676 5682 5688 5692 5697 5702 5707 5711 5711 5717 5723
5533 5536 5542 5543 5548 5555 5563 5568 5581 5590 5601 5612 5624 5634 5643 5650 5660 5668 5676 5683 5689 5695 5701 5705 5706 5712 5715
5508 5512 5515 5518 5521 5526 5534 5544 5552 5563 5572 5587 5598 5610 5622 5633 5642 5652 5662 5672 5677 5683 5689 5695 5700 5704 5708
5488 5488 5489 5492 5497 5503 5505 5516 5527 5532 5544 5559 5569 5584 5598 5612 5623 5634 5646 5656 5665 5672 5679 5687 5691 5696 5701
5462 5463 5464 5466 5469 5474 5480 5487 5499 5510 5513 5531 5541 5557 5571 5587 5602 5616 5628 5640 5650 5659 5666 5676 5682 5687 5695
5440 5440 5440 5442 5445 5449 5454 5460 5470 5481 5489 5501 5517 5526 5543 5558 5576 5594 5608 5622 5634 5644 5653 5663 5671 5678 5683
5425 5424 5423 5424 5425 5427 5432 5436 5442 5451 5460 5475 5488 5500 5516 5530 5550 5568 5585 5601 5616 5630 5640 5650 5660 5666 5673
5409 5408 5407 5408 5409 5410 5412 5415 5419 5427 5434 5446 5456 5474 5488 5506 5523 5541 5560 5579 5595 5611 5623 5634 5646 5654 5662
5393 5392 5391 5391 5392 5394 5397 5399 5402 5408 5413 5421 5434 5447 5463 5482 5498 5514 5534 5554 5572 5591 5606 5618 5631 5641 5648
5379 5378 5377 5376 5376 5379 5382 5384 5387 5390 5395 5401 5411 5419 5436 5456 5474 5489 5508 5530 5550 5570 5588 5601 5614 5626 5634
5366 5365 5363 5363 5364 5363 5366 5369 5372 5375 5379 5384 5391 5399 5414 5431 5449 5467 5483 5508 5528 5548 5566 5582 5598 5611 5622
5353 5352 5350 5350 5350 5350 5351 5352 5357 5361 5364 5368 5375 5381 5393 5408 5428 5446 5463 5486 5506 5526 5545 5564 5581 5595 5606
5341 5339 5338 5337 5337 5337 5337 5338 5342 5346 5351 5355 5360 5367 5377 5392 5408 5424 5442 5459 5482 5503 5525 5544 5563 5578 5591
5329 5327 5326 5325 5324 5323 5323 5324 5329 5333 5338 5342 5347 5354 5364 5376 5386 5402 5421 5436 5461 5484 5505 5524 5545 5560 5574
Wind_Speed
72 73 74 72 71 70 69 67 66 64 61 59 56 54 51 47 42 41 39 34 29 26 28 30 39 33 27
80 79 79 82 79 78 76 74 72 70 66 64 62 59 56 53 48 44 42 39 35 28 30 33 33 40 33
86 84 81 81 84 82 82 81 80 77 73 68 66 64 60 58 54 50 46 46 39 31 29 27 32 37 35
87 85 84 82 84 85 83 82 83 84 81 77 73 69 67 62 59 55 51 46 43 36 32 27 30 35 42
79 81 79 80 80 81 84 85 82 82 84 85 81 76 72 69 65 60 55 52 49 42 37 34 39 34 45
72 74 74 76 77 78 80 80 82 82 82 84 87 85 79 75 72 67 61 56 54 48 40 36 36 38 49
72 74 75 77 77 77 77 77 78 82 81 81 87 90 87 82 77 73 67 62 58 53 45 42 38 37 47
71 71 73 74 76 78 81 82 79 76 82 80 83 88 92 90 84 80 75 69 63 58 52 46 41 42 48
59 60 62 65 65 69 73 80 81 80 80 80 78 85 91 95 93 87 82 76 69 64 59 51 47 48 40
51 52 52 52 52 53 56 66 73 75 77 82 80 83 87 95 97 95 89 82 76 70 65 58 54 51 40
52 52 52 51 49 50 49 51 60 65 67 78 82 82 86 89 98 99 96 90 81 75 71 64 58 54 54
42 43 46 50 50 49 47 47 48 54 58 68 74 81 85 88 92 100 98 95 88 81 77 70 63 59 58
40 40 41 42 45 46 47 46 47 45 51 59 65 74 80 87 92 97 99 97 94 88 82 77 69 66 63
38 39 40 39 39 42 43 44 42 45 47 53 57 66 75 82 93 96 101 98 97 93 87 81 74 71 66
37 36 37 36 37 40 41 43 43 43 44 49 53 59 66 76 90 96 102 101 99 96 92 86 80 76 70
35 36 35 35 35 37 40 41 41 41 41 47 52 54 58 66 85 96 102 104 102 99 95 91 84 81 75
36 35 35 35 34 35 38 41 40 40 41 46 53 53 53 57 76 93 100 107 104 102 99 95 88 86 82
Wind_Direction
256 257 259 255 252 252 253 252 250 249 249 247 247 248 247 247 249 251 257 259 264 260 286 240 225 232 229
260 257 254 257 254 253 251 249 251 250 247 247 246 244 243 244 244 246 250 254 254 257 249 249 231 228 227
262 264 262 258 258 255 251 249 248 248 248 245 244 246 243 241 242 242 244 247 248 248 244 267 221 228 222
263 263 263 261 258 257 256 250 247 246 245 245 243 241 242 240 238 239 241 245 248 247 248 261 242 216 220
264 261 261 260 258 254 252 253 249 244 243 243 241 241 238 240 238 236 236 238 241 241 239 243 252 233 213
266 265 263 261 259 257 254 249 249 246 241 239 239 239 237 235 237 236 233 233 236 239 238 240 239 228 210
267 266 263 261 259 258 256 252 246 245 242 237 235 235 236 234 232 234 233 230 231 235 235 234 234 241 208
269 266 263 261 260 257 255 253 249 244 243 236 234 230 230 231 230 229 230 228 227 229 232 230 230 235 208
273 272 270 268 264 258 256 252 250 246 243 239 231 231 226 225 227 227 227 226 224 224 227 227 227 225 226
273 273 271 270 269 264 257 252 250 247 242 239 234 230 226 224 222 224 225 225 222 220 224 221 222 219 228
273 271 269 267 267 266 262 255 248 246 244 237 235 228 225 223 222 220 222 223 221 219 221 220 218 218 219
275 272 268 266 264 262 262 260 255 246 242 238 233 229 223 220 221 219 217 219 220 218 219 219 214 216 219
276 274 271 267 264 262 259 259 256 250 243 239 233 229 223 216 217 219 217 214 217 217 217 218 212 213 218
279 278 273 269 265 261 258 254 254 250 248 236 234 230 223 216 213 214 218 212 213 215 215 216 212 212 215
279 281 278 272 265 261 258 254 251 248 247 235 231 230 225 216 211 211 216 212 209 211 212 212 212 211 213
277 279 279 276 269 261 257 254 248 244 243 234 230 230 226 217 211 209 211 214 207 206 208 210 209 209 210
278 278 278 277 272 266 258 254 249 243 238 233 229 231 228 219 212 209 208 213 208 205 205 207 207 208 209